| time (UTC) | temp F | wind direction | speed MPH | gust MPH | rain 1hr in | rain 24hr in | rain mn in | humidity % | barometer mb |
| 20260504082004 | 50 | 141 | 4.0 | 8.0 | 0.00 | 0.00 | 0.00 | 65 | 987.5 |
| 20260504081005 | 50 | 193 | 3.0 | 7.0 | 0.00 | 0.00 | 0.00 | 68 | 987.5 |
| 20260504043006 | 51 | 195 | 7.0 | 13.0 | 0.00 | 0.00 | 0.00 | 63 | 989.2 |
| 20260504042005 | 51 | 206 | 7.0 | 14.0 | 0.00 | 0.00 | 0.00 | 61 | 989.0 |
| 20260504040004 | 52 | 220 | 4.0 | 13.0 | 0.00 | 0.00 | 0.00 | 58 | 989.0 |
| 20260504035004 | 52 | 189 | 5.0 | 12.0 | 0.00 | 0.00 | 0.00 | 57 | 989.0 |
| 20260504034005 | 52 | 183 | 6.0 | 15.0 | 0.00 | 0.00 | 0.00 | 57 | 988.7 |
| 20260504031005 | 54 | 179 | 6.0 | 17.0 | 0.00 | 0.00 | 0.00 | 53 | 989.0 |
| 20260504030006 | 55 | 153 | 6.0 | 15.0 | 0.00 | 0.00 | 0.00 | 51 | 989.3 |
| 20260504025005 | 55 | 173 | 6.0 | 16.0 | 0.00 | 0.00 | 0.00 | 50 | 989.0 |
| 20260504024005 | 55 | 203 | 5.0 | 15.0 | 0.00 | 0.00 | 0.00 | 50 | 989.2 |
| 20260504023004 | 55 | 184 | 7.0 | 17.0 | 0.00 | 0.00 | 0.00 | 50 | 989.3 |
| 20260504022005 | 55 | 156 | 5.0 | 14.0 | 0.00 | 0.00 | 0.00 | 50 | 989.3 |
| 20260504020005 | 54 | 192 | 5.0 | 17.0 | 0.00 | 0.00 | 0.00 | 53 | 989.3 |
| 20260504015004 | 54 | 196 | 9.0 | 16.0 | 0.00 | 0.00 | 0.00 | 52 | 989.4 |
| 20260504014007 | 54 | 215 | 5.0 | 10.0 | 0.00 | 0.00 | 0.00 | 53 | 989.2 |
| 20260504013005 | 54 | 199 | 6.0 | 15.0 | 0.00 | 0.00 | 0.00 | 54 | 989.2 |
| 20260504012006 | 54 | 186 | 7.0 | 16.0 | 0.00 | 0.00 | 0.00 | 53 | 989.5 |
| 20260504011005 | 54 | 188 | 8.0 | 17.0 | 0.00 | 0.00 | 0.00 | 53 | 989.3 |
| 20260504010005 | 54 | 202 | 6.0 | 20.0 | 0.00 | 0.00 | 0.00 | 53 | 989.5 |
| 20260504005006 | 54 | 213 | 7.0 | 20.0 | 0.00 | 0.00 | 0.00 | 52 | 989.1 |
| 20260504004004 | 54 | 176 | 5.0 | 14.0 | 0.00 | 0.00 | 0.00 | 53 | 989.2 |
| 20260504002004 | 53 | 162 | 5.0 | 14.0 | 0.00 | 0.00 | 0.00 | 55 | 989.1 |
| 20260504001004 | 53 | 207 | 7.0 | 13.0 | 0.00 | 0.00 | 0.00 | 57 | 988.9 |
| 20260504000006 | 53 | 224 | 4.0 | 15.0 | 0.00 | 0.00 | 0.00 | 58 | 988.9 |
| 20260503235005 | 53 | 205 | 6.0 | 14.0 | 0.00 | 0.00 | 0.00 | 57 | 989.0 |
| 20260503234005 | 54 | 213 | 4.0 | 12.0 | 0.00 | 0.00 | 0.00 | 56 | 989.3 |
| 20260503233006 | 54 | 191 | 5.0 | 15.0 | 0.00 | 0.00 | 0.00 | 54 | 989.3 |
| 20260503232005 | 54 | 183 | 6.0 | 14.0 | 0.00 | 0.00 | 0.00 | 55 | 989.3 |
| 20260503231006 | 54 | 175 | 6.0 | 14.0 | 0.00 | 0.00 | 0.00 | 57 | 989.4 |
| 20260503230006 | 54 | 224 | 6.0 | 15.0 | 0.00 | 0.00 | 0.00 | 57 | 989.4 |
| 20260503225005 | 54 | 206 | 5.0 | 16.0 | 0.00 | 0.00 | 0.00 | 58 | 989.6 |
| 20260503224006 | 53 | 208 | 7.0 | 15.0 | 0.00 | 0.00 | 0.00 | 59 | 989.6 |
| 20260503223004 | 53 | 213 | 5.0 | 15.0 | 0.00 | 0.00 | 0.00 | 60 | 989.6 |
| 20260503221005 | 53 | 207 | 9.0 | 23.0 | 0.00 | 0.00 | 0.00 | 59 | 989.6 |
| 20260503220004 | 52 | 207 | 8.0 | 20.0 | 0.00 | 0.00 | 0.00 | 61 | 989.6 |
| 20260503215004 | 52 | 193 | 6.0 | 18.0 | 0.00 | 0.00 | 0.00 | 62 | 989.6 |
| 20260503214006 | 52 | 185 | 7.0 | 20.0 | 0.00 | 0.00 | 0.00 | 62 | 989.4 |
| 20260503213004 | 52 | 184 | 7.0 | 16.0 | 0.00 | 0.00 | 0.00 | 61 | 989.3 |
| 20260503212005 | 53 | 191 | 8.0 | 18.0 | 0.00 | 0.00 | 0.00 | 61 | 989.1 |
| 20260503211005 | 52 | 188 | 7.0 | 24.0 | 0.00 | 0.00 | 0.00 | 61 | 989.3 |
| 20260503210005 | 52 | 177 | 8.0 | 23.0 | 0.00 | 0.00 | 0.00 | 60 | 989.4 |
| 20260503205005 | 51 | 180 | 7.0 | 17.0 | 0.00 | 0.00 | 0.00 | 62 | 989.5 |
| 20260503204005 | 51 | 206 | 7.0 | 14.0 | 0.00 | 0.00 | 0.00 | 61 | 989.4 |
| 20260503203004 | 52 | 197 | 7.0 | 17.0 | 0.00 | 0.00 | 0.00 | 60 | 989.5 |
| 20260503201004 | 51 | 121 | 8.0 | 14.0 | 0.00 | 0.00 | 0.00 | 49 | 992.2 |
| 20260503195005 | 51 | 121 | 8.0 | 14.0 | 0.00 | 0.00 | 0.00 | 49 | 992.2 |
| 20260503194004 | 51 | 121 | 8.0 | 14.0 | 0.00 | 0.00 | 0.00 | 49 | 992.2 |
| 20260503193004 | 51 | 121 | 8.0 | 14.0 | 0.00 | 0.00 | 0.00 | 49 | 992.2 |
| 20260503192004 | 51 | 121 | 8.0 | 14.0 | 0.00 | 0.00 | 0.00 | 49 | 992.2 |
| 20260503191004 | 51 | 121 | 8.0 | 14.0 | 0.00 | 0.00 | 0.00 | 49 | 992.2 |
| 20260503190004 | 51 | 121 | 8.0 | 14.0 | 0.00 | 0.00 | 0.00 | 49 | 992.2 |
| 20260503185004 | 51 | 121 | 8.0 | 14.0 | 0.00 | 0.00 | 0.00 | 49 | 992.2 |
| 20260503184005 | 51 | 121 | 8.0 | 14.0 | 0.00 | 0.00 | 0.00 | 49 | 992.2 |
| 20260503183006 | 51 | 121 | 8.0 | 14.0 | 0.00 | 0.00 | 0.00 | 49 | 992.2 |
| 20260503182006 | 51 | 121 | 8.0 | 14.0 | 0.00 | 0.00 | 0.00 | 49 | 992.2 |
| 20260503181004 | 51 | 121 | 8.0 | 14.0 | 0.00 | 0.00 | 0.00 | 49 | 992.2 |
| 20260503180004 | 51 | 121 | 8.0 | 14.0 | 0.00 | 0.00 | 0.00 | 49 | 992.2 |
| 20260503175005 | 51 | 121 | 8.0 | 14.0 | 0.00 | 0.00 | 0.00 | 49 | 992.2 |
| 20260503174003 | 51 | 121 | 8.0 | 14.0 | 0.00 | 0.00 | 0.00 | 49 | 992.2 |
| 20260503173004 | 51 | 122 | 6.0 | 15.0 | 0.00 | 0.00 | 0.00 | 51 | 992.4 |
| 20260503171007 | 52 | 209 | 6.0 | 15.0 | 0.00 | 0.00 | 0.00 | 52 | 992.1 |
| 20260503151004 | 50 | 144 | 3.0 | 12.0 | 0.00 | 0.00 | 0.00 | 58 | 993.3 |
| 20260503131004 | 45 | 210 | 6.0 | 12.0 | 0.00 | 0.00 | 0.00 | 77 | 993.5 |